Simultaneous Nadir Overpasses (SNOs) Predictions

Prediction of SNOs between AQUA and NOAA-19 Satellite Orbit:

Table of predicted SNOs for the next 14.0 days since TLE Epoch: 3/24/2012
Index Date (AQUA) Time (AQUA) AQUA Lat,Lon Date (NOAA-19) Time (NOAA-19) NOAA-19 Lat,Lon Distance(km) Time Diff (sec)
1 03/26/2012 14:45:16 -46.00, -8.84 03/26/2012 14:44:10 -45.97, -8.80 4.52 66
2 03/26/2012 15:31:33 57.02, 163.83 03/26/2012 15:32:00 57.02, 163.83 0.28 27
3 03/28/2012 19:29:03 -48.02, -79.15 03/28/2012 19:28:21 -48.02, -79.16 0.32 42
4 03/28/2012 20:15:04 59.87, 94.49 03/28/2012 20:15:55 59.88, 94.53 1.93 51
5 03/31/2012 00:12:23 -51.54,-148.75 03/31/2012 00:12:05 -51.54,-148.76 0.61 18
6 03/31/2012 00:57:31 66.40, 28.75 03/31/2012 00:58:44 66.38, 29.08 14.96 73
7 04/02/2012 04:55:40 -55.26, 141.97 04/02/2012 04:55:46 -55.26, 141.99 1.25 6
8 04/04/2012 08:52:44 47.39,-100.27 04/04/2012 08:51:51 47.39,-100.25 1.51 53
9 04/04/2012 09:39:13 -58.00, 72.42 04/04/2012 09:39:44 -58.01, 72.45 1.43 31
10 04/06/2012 13:36:03 50.99,-169.86 04/06/2012 13:35:35 50.99,-169.85 0.90 28




NCC Satellite Simultaneous Nadir Overpasses (SNOs) Prediction Service
